McComb, MS

8:05 PM CDT on May 21, 2018 (GMT -0500)
McComb-Pike County-Lewis

Weather History for KMCB - June, 2013

Change the Weather History Date:

Sunday, June 2, 2013

  Actual Average Record
Temperature  
Mean Temperature 75 °F -  
Max Temperature 84 °F 87 °F 102 °F (2011)
Min Temperature 66 °F 63 °F 51 °F (1966)
Cooling Degree Days 10    
Growing Degree Days 25 (Base 50)    
Moisture  
Dew Point 69 °F    
Average Humidity 87    
Maximum Humidity 100    
Minimum Humidity 61    
Precipitation  
Precipitation 0.48 in - - ()
Sea Level Pressure  
Sea Level Pressure 29.97 in    
Wind  
Wind Speed 4 mph (North)    
Max Wind Speed 13 mph    
Max Gust Speed 24 mph    
Visibility 9 miles    
Events Rain    
Averages and records for this station are not official NWS values.
T = Trace of Precipitation, MM = Missing Value Source: NWS Daily Summary

Daily Weather History Graph

Daily Weather History Graph

Search for Another Location

Airport or City:

Astronomy

Jun. 02, 2013 Rise Set
Actual Time 5:58 AM CDT 8:01 PM CDT
Civil Twilight 5:30 AM CDT 8:29 PM CDT
Nautical Twilight 4:57 AM CDT 9:02 PM CDT
Astronomical Twilight 4:21 AM CDT 9:38 PM CDT
Moon 2:04 AM CDT (6/2) 2:50 PM CDT (6/2)
Length of Visible Light 14h 58m
Length of Day
14h 03m
Waning Crescent, 30% of the Moon is Illuminated
Jun 2
Waning Crescent
Jun 8
New
Jun 16
First Quarter
Jun 23
Full
Jun 29
Last Quarter

Hourly Weather History & Observations

Time (CDT) Temp. Heat Index Dew Point Humidity Pressure Visibility Wind Dir Wind Speed Gust Speed Precip Events Conditions
12:38 AM 75.2 °F - 73.4 °F 94% 29.98 in 10.0 mi South 3.5 mph - N/A   Mostly Cloudy
12:49 AM 75.2 °F - 73.4 °F 94% 29.97 in 10.0 mi SSE 3.5 mph - N/A   Scattered Clouds
12:53 AM 75.0 °F - 73.0 °F 94% 29.95 in 10.0 mi SSE 4.6 mph - N/A   Scattered Clouds
1:53 AM 75.9 °F - 73.9 °F 94% 29.94 in 10.0 mi Calm Calm - N/A   Scattered Clouds
2:02 AM 75.2 °F - 73.4 °F 94% 29.97 in 9.0 mi Calm Calm - N/A   Mostly Cloudy
2:14 AM 75.2 °F - 73.4 °F 94% 29.97 in 9.0 mi Calm Calm - N/A   Scattered Clouds
2:22 AM 75.2 °F - 73.4 °F 94% 29.97 in 9.0 mi Calm Calm - N/A   Mostly Cloudy
2:53 AM 75.0 °F - 73.0 °F 94% 29.96 in 7.0 mi Calm Calm - N/A   Mostly Cloudy
3:53 AM 75.0 °F - 73.0 °F 94% 29.97 in 9.0 mi Calm Calm - N/A   Scattered Clouds
4:15 AM 75.2 °F - 73.4 °F 94% 29.99 in 9.0 mi NNE 5.8 mph - N/A   Overcast
4:36 AM 71.6 °F - 66.2 °F 83% 30.00 in 10.0 mi NNE 12.7 mph 24.2 mph N/A   Overcast
4:46 AM 71.6 °F - 64.4 °F 78% 30.01 in 10.0 mi NE 10.4 mph 20.7 mph N/A   Overcast
4:53 AM 70.0 °F - 64.9 °F 84% 29.99 in 10.0 mi NNE 9.2 mph 17.3 mph N/A   Overcast
5:44 AM 68.0 °F - 66.2 °F 94% 30.03 in 8.0 mi NNE 3.5 mph - 0.08 in Rain Light Rain
5:53 AM 68.0 °F - 66.9 °F 96% 30.03 in 10.0 mi NNW 10.4 mph - 0.08 in Rain Light Rain
6:02 AM 68.0 °F - 66.2 °F 94% 30.04 in 6.0 mi Calm Calm - 0.02 in Rain Rain
6:14 AM 68.0 °F - 66.2 °F 94% 30.04 in 2.5 mi Variable 6.9 mph - 0.10 in Rain Heavy Rain
6:33 AM 68.0 °F - 66.2 °F 94% 30.04 in 4.0 mi NNE 4.6 mph - 0.21 in Rain Heavy Rain
6:46 AM 66.2 °F - 66.2 °F 100% 30.03 in 1.8 mi East 6.9 mph - 0.28 in Rain Heavy Rain
6:53 AM 66.9 °F - 66.0 °F 97% 30.01 in 1.5 mi East 8.1 mph - 0.33 in Rain Heavy Rain
6:58 AM 66.2 °F - 66.2 °F 100% 30.02 in 3.0 mi Variable 5.8 mph - 0.01 in Rain Light Rain
7:53 AM 68.0 °F - 66.0 °F 93% 30.01 in 10.0 mi Calm Calm - 0.03 in Rain Light Rain
8:41 AM 68.0 °F - 66.2 °F 94% 30.05 in 9.0 mi West 5.8 mph - 0.03 in Rain Light Rain
8:53 AM 68.0 °F - 66.9 °F 96% 30.02 in 10.0 mi SSW 3.5 mph - 0.03 in   Overcast
9:08 AM 68.0 °F - 66.2 °F 94% 30.02 in 10.0 mi SSE 5.8 mph - N/A   Overcast
9:53 AM 68.0 °F - 66.9 °F 96% 29.97 in 10.0 mi South 5.8 mph - 0.00 in   Mostly Cloudy
10:53 AM 73.0 °F - 69.1 °F 87% 29.92 in 10.0 mi Calm Calm - 0.01 in   Clear
11:53 AM 80.1 °F 82.7 °F 68.0 °F 67% 29.93 in 10.0 mi WSW 5.8 mph - N/A   Clear
12:53 PM 82.9 °F 86.5 °F 69.1 °F 63% 29.95 in 10.0 mi Variable 4.6 mph - N/A   Clear
1:53 PM 84.0 °F 87.8 °F 69.1 °F 61% 29.93 in 10.0 mi NW 10.4 mph - N/A   Partly Cloudy
2:53 PM 84.0 °F 89.0 °F 71.1 °F 65% 29.92 in 10.0 mi NNW 8.1 mph - N/A   Scattered Clouds
3:53 PM 82.9 °F 87.0 °F 70.0 °F 65% 29.92 in 10.0 mi NW 11.5 mph - N/A   Mostly Cloudy
4:53 PM 82.9 °F 87.0 °F 70.0 °F 65% 29.91 in 10.0 mi NW 8.1 mph - N/A   Scattered Clouds
5:53 PM 81.0 °F 83.3 °F 66.9 °F 62% 29.90 in 10.0 mi NW 6.9 mph - N/A   Partly Cloudy
6:53 PM 80.1 °F 82.9 °F 69.1 °F 69% 29.88 in 10.0 mi NNW 3.5 mph - N/A   Mostly Cloudy
7:53 PM 79.0 °F - 71.1 °F 77% 29.88 in 10.0 mi Calm Calm - N/A   Clear
8:53 PM 75.0 °F - 72.0 °F 90% 29.89 in 10.0 mi Calm Calm - N/A   Mostly Cloudy
9:53 PM 73.9 °F - 71.1 °F 91% 29.91 in 10.0 mi Calm Calm - N/A   Clear
10:53 PM 73.0 °F - 71.1 °F 93% 29.92 in 10.0 mi Calm Calm - N/A   Scattered Clouds
11:53 PM 72.0 °F - 71.1 °F 97% 29.92 in 10.0 mi Calm Calm - N/A   Partly Cloudy